Regional Weather Roundup
Issued by NWS Sioux Falls, SD

Home | Current Version | Previous Version | Text Only | Print | Product List | Glossary Off
Versions: 1 2 3 4 5 6 7 8 9 10 11 12 13 14 15 16 17 18 19 20 21 22 23 24 25 26 27 28 29 30 31 32 33 34 35 36 37 38 39 40 41 42 43 44 45 46 47 48 49 50

000
ASUS43 KFSD 200502
RWRFSD

WEATHER ROUNDUP FOR SE SOUTH DAKOTA/SW MINNESOTA/NW IOWA
NATIONAL WEATHER SERVICE SIOUX FALLS SD
1100 PM CST SUN NOV 19 2017

NOTE: "FAIR" INDICATES FEW OR NO CLOUDS BELOW 12,000 FEET WITH NO
SIGNIFICANT WEATHER AND OR OBSTRUCTIONS TO VISIBILITY.


SDZ038>040-050-052>070-200600-
SOUTHEAST SOUTH DAKOTA

CITY           SKY/WX    TMP DP  RH WIND       PRES   REMARKS
BROOKINGS      CLOUDY    34  23  64 S12       29.74F WCI  25
CHAMBERLAIN    CLOUDY    35  23  61 CALM      29.73F
HURON          CLOUDY    29  23  78 SE6       29.72F WCI  23
MADISON        FAIR      32  25  74 S9        29.76F WCI  24
MITCHELL       PTCLDY    34  23  64 S8        29.75F WCI  27
SIOUX FALLS    MOCLDY    41  26  55 S7        29.77F
WINNER         FAIR      41  21  44 SW3       29.73F
YANKTON        PTCLDY    42  25  50 SW9       29.79F
$$

MNZ071-072-080-081-089-090-097-098-200600-
SOUTHWEST MINNESOTA

CITY           SKY/WX    TMP DP  RH WIND       PRES   REMARKS
FAIRMONT       CLOUDY    36  28  73 S8        29.82F
JACKSON        MOCLDY    36  28  75 S6        29.80F
MARSHALL       CLOUDY    37  24  59 SE3       29.76F
MONTEVIDEO     CLOUDY    34  25  69 SW3       29.75F
PIPESTONE      PTCLDY    32  23  69 S7        29.76F WCI  26
REDWOOD FALLS  CLOUDY    34  23  64 S9        29.77F WCI  27
WINDOM         CLOUDY    34  19  55 S3        29.79F
WORTHINGTON    CLOUDY    37  25  61 SW12      29.79F
$$

IAZ001>003-012>014-020>022-031-032-NEZ013-014-SDZ071-200600-
NORTHWEST IOWA

CITY           SKY/WX    TMP DP  RH WIND       PRES   REMARKS
CHEROKEE       PTCLDY    35  26  71 S6        29.83F WCI  30
DENISON        CLOUDY    39  27  60 S8        29.89F
ESTHERVILLE    CLOUDY    33  27  78 S9        29.80F WCI  25
LE MARS        CLOUDY    36  27  69 S7        29.83F
ORANGE CITY    CLOUDY    36  28  75 SW8       29.81F
SHELDON        PTCLDY    37  25  60 S9        29.79F
SIOUX CITY     CLOUDY    30  25  81 E6        29.85F WCI  24
SPENCER        CLOUDY    35  27  72 S10       29.82F WCI  27
STORM LAKE     CLOUDY    37  27  65 SW13      29.84F
$$

ABBREVIATIONS USED IN REMARKS
   TC - TEMPERATURE IN CELSIUS
  WCI - WIND CHILL INDEX
   HX - HEAT INDEX
  VSB - VISIBILITY




USA.gov is the U.S. government's official web portal to all federal, state and local government web resources and services.